FW0059 Weather Reports


Display with metric or nautical units.
time (UTC)temp
F
wind
direction
speed
MPH
gust
MPH
rain 1hr
in
rain 24hr
in
rain mn
in
humidity
%
barometer
mb
20260505021529 65 300 0.0 0.0 0.00 0.00 0.00 69 1014.8
20260505020036 64 300 0.0 0.0 0.00 0.00 0.00 67 1014.7
20260505014524 65 300 0.0 0.0 0.00 0.00 0.00 73 1014.7
20260505013024 66 300 0.0 0.0 0.00 0.00 0.00 70 1014.6
20260505011518 66 300 0.0 0.0 0.00 0.00 0.00 69 1014.6
20260505010015 67 300 0.0 0.0 0.00 0.00 0.00 68 1014.3
20260505004517 68 300 0.0 0.0 0.00 0.00 0.00 66 1014.2
20260505003007 69 300 0.0 0.0 0.00 0.00 0.00 62 1014.0
20260505001504 70 300 0.0 0.0 0.00 0.00 0.00 62 1014.0
20260505000109 71 300 0.0 0.0 0.00 0.00 0.00 57 1014.0
20260504234612 72 300 0.0 0.0 0.00 0.00 0.00 53 1014.1
20260504233058 73 300 0.0 0.0 0.00 0.00 0.00 50 1014.1
20260504231554 74 300 0.0 0.0 0.00 0.00 0.00 46 1014.0
20260504230055 74 300 0.0 0.0 0.00 0.00 0.00 43 1014.1
20260504224555 75 300 0.0 0.0 0.00 0.00 0.00 42 1014.1
20260504223055 75 300 0.0 0.0 0.00 0.00 0.00 43 1014.1
20260504221550 75 300 0.0 0.0 0.00 0.00 0.00 41 1014.3
20260504220057 76 300 0.0 0.0 0.00 0.00 0.00 39 1014.2
20260504214549 76 300 0.0 0.0 0.00 0.00 0.00 39 1014.1
20260504213107 76 300 0.0 0.0 0.00 0.00 0.00 39 1014.1
20260504211545 77 300 0.0 0.0 0.00 0.00 0.00 36 1014.2
20260504210042 77 300 0.0 0.0 0.00 0.00 0.00 37 1014.5
20260504204543 77 300 0.0 0.0 0.00 0.00 0.00 37 1014.6
20260504203039 77 300 0.0 0.0 0.00 0.00 0.00 34 1015.0
20260504201535 78 300 0.0 0.0 0.00 0.00 0.00 36 1015.1
20260504200034 78 300 0.0 0.0 0.00 0.00 0.00 35 1015.3
20260504194532 78 300 0.0 0.0 0.00 0.00 0.00 35 1015.4
20260504193030 79 300 0.0 0.0 0.00 0.00 0.00 34 1015.5
20260504191557 80 300 0.0 0.0 0.00 0.00 0.00 35 1015.7
20260504190106 83 300 0.0 0.0 0.00 0.00 0.00 33 1016.0
20260504184549 87 300 0.0 0.0 0.00 0.00 0.00 26 1016.3
20260504183057 98 300 0.0 0.0 0.00 0.00 0.00 22 1016.4
20260504181543 101 300 0.0 0.0 0.00 0.00 0.00 23 1016.5
20260504180107 101 299 0.0 0.0 0.00 0.00 0.00 24 1016.7
20260504174512 101 300 0.0 0.0 0.00 0.00 0.00 24 1016.8
20260504173005 101 300 0.0 0.0 0.00 0.00 0.00 24 1016.9
20260504171532 100 299 0.0 0.0 0.00 0.00 0.00 24 1017.0
20260504140103 64 300 0.0 0.0 0.00 0.00 0.00 77 1018.2
20260504081513 0 0.0 0.0 0.00 0.00 0.00 1017.9
20260504050012 54 300 0.0 0.0 0.00 0.00 0.00 82 1018.7
20260504044511 54 300 0.0 0.0 0.00 0.00 0.00 80 1018.6
20260504043046 54 300 0.0 0.0 0.00 0.00 0.00 79 1018.5
20260504041537 55 300 0.0 0.0 0.00 0.00 0.00 79 1018.6
20260504040034 55 300 0.0 0.0 0.00 0.00 0.00 78 1018.5
20260504034530 56 300 0.0 0.0 0.00 0.00 0.00 76 1018.4
20260504033028 56 300 0.0 0.0 0.00 0.00 0.00 74 1018.5
20260504031528 56 300 0.0 0.0 0.00 0.00 0.00 72 1018.5
20260504030023 57 300 0.0 0.0 0.00 0.00 0.00 69 1018.4
20260504024521 57 300 0.0 0.0 0.00 0.00 0.00 67 1018.4
20260504023020 58 300 0.0 0.0 0.00 0.00 0.00 64 1018.3